Content
SEND FEEDBACK

Daily
Averages
Monthly
Summary
United States of America

RIVERHEAD, NEW YORK


Home > North America > United States > New York
Elevation: 67 feet     Latitude: 40 50N     Longitude: 072 37W

WEATHER
 
SELECT A DAY
Number of Records: 202,008;   Date Range: 1/1/95 - 8/12/14
 
SHARE

PRINT THIS DATA

[ ← Previous Day ]
WEATHER ALMANAC - FEBRUARY 5, 2013
[ Next Day → ]
[ °C ]   °F
Weather ElementAverageHighLow
Temperature29.4 °F30.9 °F (3:53 pm)26.6 °F (3:37 am)
Dewpoint23.7 °F28 °F (8:53 pm)15.1 °F (1:53 am)
Humidity79.6 %89 % (8:53 pm)58 % (1:53 am)
Barometer29.95 in30.00 in (10:53 am)29.92 in (6:13 pm)
Wind Speed6.2 mph11.5 mph (12:53 pm)
Wind Gust16.1 mph (12:53 pm)
Weather ElementAverage
Visibility7.4 mi
Wind DirectionNNE (33.7 °)

Weather ElementTotal
Precipitation0.05 in
Heating Degree Days36.3 (Base 65)
Averaged from 30 records on February 5, 2013
WEATHER CONDITIONS BREAKOUT
WIND DIRECTION BREAKOUT
WEATHER BY HOUR - FEBRUARY 5, 2013
[ °C ]   °F
Local TimeTemperatureDewpointHumidityBarometerVisibilityWind DirectionWind SpeedGust SpeedPrecipitationEventsConditions
1:53 AM28.0 °F15.1 °F58 %29.99 in10.0 miCalmOvercast
2:53 AM27.0 °F17.1 °F66 %29.98 in4.0 miCalm0.00 inSnowLight Snow
3:37 AM26.6 °F17.6 °F69 %29.97 in6.0 miCalm0.00 inSnowLight Snow
3:53 AM27.0 °F18.0 °F69 %29.97 in8.0 miCalm0.00 inOvercast
4:53 AM27.0 °F19.0 °F72 %29.96 in6.0 miNNE (20°)4.6 mph0.01 inSnowLight Snow
5:53 AM27.0 °F19.9 °F75 %29.96 in7.0 miNE (40°)4.6 mph0.00 inOvercast
6:53 AM28.0 °F21.0 °F75 %29.97 in6.0 miNNE (30°)3.5 mph0.00 inSnowLight Snow
7:53 AM28.0 °F21.9 °F78 %29.99 in7.0 miNE (50°)4.6 mph0.00 inOvercast
8:53 AM28.0 °F23.0 °F81 %29.99 in7.0 miNE (50°)6.9 mph0.00 inOvercast
9:38 AM28.4 °F24.8 °F86 %29.99 in7.0 miNE (50°)8.1 mphOvercast
9:53 AM30.0 °F24.1 °F79 %29.99 in7.0 miNE (40°)6.9 mphOvercast
10:53 AM30.0 °F24.1 °F79 %30.00 in10.0 miNE (50°)8.1 mphOvercast
11:53 AM30.0 °F24.1 °F79 %29.98 in9.0 miNE (40°)10.4 mph0.00 inOvercast
12:53 PM30.0 °F24.1 °F79 %29.96 in10.0 miNE (50°)11.5 mph16.1 mph0.00 inOvercast
1:53 PM30.0 °F25.0 °F82 %29.96 in9.0 miNNE (30°)10.4 mphOvercast
2:16 PM30.2 °F24.8 °F80 %29.95 in5.0 miNE (40°)10.4 mph0.00 inSnowLight Snow
2:46 PM30.2 °F26.6 °F86 %29.93 in6.0 miENE (60°)6.9 mph0.00 inHaze
2:53 PM30.0 °F25.0 °F82 %29.93 in7.0 miENE (60°)10.4 mph0.00 inOvercast
3:53 PM30.9 °F25.0 °F79 %29.93 in10.0 miNE (50°)6.9 mph0.00 inOvercast
4:40 PM30.2 °F24.8 °F80 %29.93 in1.8 miNE (40°)5.8 mph0.01 inSnowLight Snow
4:53 PM30.0 °F25.0 °F82 %29.93 in1.0 miNE (40°)5.8 mph0.01 inSnowLight Snow
5:10 PM30.2 °F24.8 °F80 %29.93 in3.0 miNNE (30°)5.8 mph0.01 inSnowLight Snow
5:53 PM30.0 °F26.1 °F85 %29.93 in10.0 miNNE (30°)5.8 mph0.01 inOvercast
6:13 PM30.2 °F26.6 °F86 %29.92 in10.0 miNNE (30°)6.9 mphOvercast
6:53 PM30.0 °F26.1 °F85 %29.93 in10.0 miNE (40°)5.8 mphOvercast
7:53 PM30.9 °F27.0 °F85 %29.92 in10.0 miNE (40°)8.1 mphOvercast
8:53 PM30.9 °F28.0 °F89 %29.92 in10.0 miNE (40°)5.8 mphOvercast
9:53 PM30.9 °F28.0 °F89 %29.92 in9.0 miNNE (30°)9.2 mphOvercast
10:53 PM30.9 °F28.0 °F89 %29.93 in10.0 miNNE (20°)5.8 mphOvercast
11:53 PM30.9 °F27.0 °F85 %29.94 in7.0 miNorth (10°)5.8 mph0.00 inOvercast
Hourly data recorded from KFOK, located miles away from Riverhead, New York







STORIES FROM OUR PARTNERS